Location: Peterborough
(44.3091°N, 78.3197°W)
Time: 04:30:48
(UTC-04:00)

Tiros 1 despin weight - Pass Details

Date: 24 March 2023
Orbit: 586 x 632 km, 48.2° (Epoch: 08 June)

Event Time Altitude Azimuth Distance (km) Brightness Sun altitude
Rises 21:38:23 0° 215° (SW) 2,795 ? -22.8°
Reaches altitude 10° 21:40:49 10° 206° (SSW) 1,900 ? -23.2°
Enters shadow 21:41:12 12° 203° (SSW) 1,770 ? -23.2°
Maximum altitude 21:44:41 32° 143° (SE) 1,019 - -23.8°
Drops below altitude 10° 21:48:36 10° 80° (E) 1,923 - -24.4°
Sets 21:51:04 0° 70° (ENE) 2,834 - -24.8°
